IZ1UQG-2 Weather Reports


time (UTC)temp
C
wind
direction
speed
KPH
gust
KPH
rain 1hr
cm
rain 24hr
cm
rain mn
cm
humidity
%
barometer
mb
20260505211604 12 319 1.6 3.2 0.03 1.57 1.57 91 1011.1
20260505211404 12 321 1.6 4.8 0.03 1.57 1.57 91 1011.2
20260505211305 12 323 1.6 4.8 0.05 1.57 1.57 91 1011.2
20260505211204 12 324 1.6 4.8 0.05 1.57 1.57 91 1011.2
20260505211104 12 324 1.6 4.8 0.05 1.57 1.57 91 1011.2
20260505211004 11 325 1.6 4.8 0.05 1.57 1.57 91 1011.2
20260505210904 11 326 1.6 4.8 0.05 1.57 1.57 91 1011.3
20260505210804 11 327 1.6 4.8 0.05 1.57 1.57 91 1011.4
20260505210704 11 328 1.6 4.8 0.05 1.57 1.57 91 1011.4
20260505210603 11 330 1.6 4.8 0.05 1.57 1.57 91 1011.3
20260505210504 11 333 1.6 3.2 0.05 1.57 1.57 91 1011.2
20260505210304 12 333 0.0 3.2 0.05 1.57 1.57 91 1011.2
20260505210004 12 334 0.0 1.6 0.05 1.57 1.57 91 1011.2
20260505205906 12 334 0.0 1.6 0.05 1.57 1.57 91 1011.2
20260505205604 11 333 0.0 1.6 0.05 1.57 1.57 91 1011.2
20260505205504 11 333 0.0 1.6 0.05 1.57 1.57 91 1011.3
20260505205404 11 333 0.0 1.6 0.05 1.57 1.57 91 1011.4
20260505205305 11 333 0.0 1.6 0.05 1.57 1.57 91 1011.3
20260505205204 11 333 0.0 1.6 0.05 1.57 1.57 91 1011.4
20260505205103 11 333 0.0 3.2 0.05 1.57 1.57 91 1011.4
20260505205004 11 333 0.0 3.2 0.05 1.57 1.57 91 1011.4
20260505204903 11 333 0.0 3.2 0.05 1.57 1.57 91 1011.3
20260505204804 11 333 1.6 3.2 0.05 1.57 1.57 91 1011.3
20260505204604 11 333 1.6 3.2 0.08 1.57 1.57 91 1011.2
20260505204304 11 336 1.6 3.2 0.08 1.57 1.57 91 1011.4
20260505204204 11 336 1.6 3.2 0.08 1.57 1.57 91 1011.4
20260505204104 11 337 1.6 3.2 0.08 1.57 1.57 91 1011.5
20260505204005 11 338 1.6 3.2 0.08 1.57 1.57 91 1011.4
20260505203804 11 339 1.6 3.2 0.08 1.57 1.57 91 1011.4
20260505203704 11 339 1.6 3.2 0.08 1.57 1.57 91 1011.3
20260505203604 11 337 1.6 3.2 0.10 1.57 1.57 91 1011.4
20260505203505 11 335 1.6 3.2 0.10 1.57 1.57 91 1011.3
20260505203404 11 331 1.6 3.2 0.10 1.57 1.57 91 1011.5
20260505203204 12 325 1.6 3.2 0.10 1.57 1.57 91 1011.4
20260505203104 12 319 1.6 3.2 0.10 1.57 1.57 91 1011.4
20260505203004 12 314 1.6 3.2 0.10 1.57 1.57 91 1011.4
20260505202903 12 309 1.6 3.2 0.10 1.57 1.57 91 1011.5
20260505202803 12 302 1.6 3.2 0.10 1.57 1.57 91 1011.4
20260505202704 12 292 1.6 3.2 0.10 1.57 1.57 91 1011.5
20260505202604 12 285 1.6 3.2 0.10 1.57 1.57 91 1011.5
20260505202504 12 285 1.6 3.2 0.10 1.57 1.57 91 1011.4
20260505202404 12 285 1.6 3.2 0.10 1.57 1.57 91 1011.5
20260505202306 12 285 1.6 3.2 0.10 1.57 1.57 91 1011.5
20260505202204 12 285 1.6 3.2 0.10 1.57 1.57 91 1011.4
20260505202004 12 284 1.6 3.2 0.08 1.55 1.55 91 1011.5
20260505201903 12 284 0.0 3.2 0.08 1.55 1.55 91 1011.5
20260505201804 12 283 0.0 3.2 0.08 1.55 1.55 91 1011.5
20260505201704 12 281 0.0 3.2 0.08 1.55 1.55 91 1011.6
20260505201504 12 278 0.0 1.6 0.08 1.55 1.55 91 1011.5
20260505201204 12 275 0.0 1.6 0.05 1.55 1.55 91 1011.6
20260505201104 12 275 0.0 3.2 0.05 1.55 1.55 91 1011.5
20260505201005 12 275 0.0 3.2 0.05 1.55 1.55 91 1011.6
20260505200804 11 284 0.0 3.2 0.05 1.55 1.55 90 1011.5
20260505200704 12 285 0.0 3.2 0.08 1.55 1.55 90 1011.5
20260505200604 12 288 0.0 3.2 0.08 1.55 1.55 90 1011.6
20260505200504 12 289 0.0 3.2 0.08 1.55 1.55 90 1011.5
20260505200404 12 294 0.0 3.2 0.08 1.55 1.55 90 1011.5
20260505200304 12 303 0.0 3.2 0.08 1.55 1.55 91 1011.5
20260505200204 12 317 0.0 3.2 0.08 1.55 1.55 91 1011.5
20260505200105 12 346 0.0 3.2 0.08 1.55 1.55 90 1011.4
20260505200004 12 359 0.0 3.2 0.08 1.55 1.55 90 1011.4
20260505195904 12 1 0.0 1.6 0.08 1.55 1.55 91 1011.5
20260505195803 12 2 0.0 3.2 0.08 1.55 1.55 91 1011.4
20260505195704 12 2 0.0 3.2 0.08 1.55 1.55 91 1011.3
20260505195604 12 1 1.6 3.2 0.08 1.55 1.55 91 1011.4
20260505195504 12 1 1.6 3.2 0.05 1.52 1.52 90 1011.4
20260505195404 12 1 1.6 3.2 0.05 1.52 1.52 90 1011.4
20260505195305 12 1 1.6 3.2 0.05 1.52 1.52 90 1011.3
20260505195104 11 1 1.6 3.2 0.05 1.52 1.52 90 1011.5
20260505195008 11 2 0.0 3.2 0.05 1.52 1.52 90 1011.4
20260505194903 11 1 0.0 3.2 0.05 1.52 1.52 90 1011.4
20260505194805 11 1 0.0 3.2 0.05 1.50 1.50 90 1011.3
20260505194715 12 1 0.0 3.2 0.05 1.50 1.50 90 1011.3
20260505194604 12 1 0.0 1.6 0.05 1.50 1.50 90 1011.2
20260505194505 12 1 0.0 1.6 0.05 1.50 1.50 90 1011.2
20260505194403 12 1 0.0 1.6 0.05 1.50 1.50 90 1011.2
20260505194304 12 1 0.0 1.6 0.05 1.50 1.50 90 1011.3
20260505194203 12 1 0.0 1.6 0.05 1.50 1.50 90 1011.3
20260505194104 12 1 0.0 1.6 0.05 1.50 1.50 90 1011.3
20260505194004 12 1 0.0 1.6 0.05 1.50 1.50 90 1011.1
20260505193904 12 1 0.0 1.6 0.05 1.50 1.50 90 1011.2
20260505193805 12 1 0.0 1.6 0.05 1.50 1.50 90 1011.3
20260505193703 12 1 0.0 1.6 0.05 1.50 1.50 90 1011.2
20260505193604 12 1 0.0 1.6 0.03 1.47 1.47 90 1011.4
20260505193504 12 1 0.0 1.6 0.03 1.47 1.47 90 1011.3
20260505193403 12 1 0.0 1.6 0.03 1.47 1.47 90 1011.3
20260505193304 12 1 0.0 1.6 0.03 1.47 1.47 90 1011.3
20260505193204 12 1 0.0 1.6 0.03 1.47 1.47 90 1011.2
20260505193109 12 1 0.0 1.6 0.03 1.47 1.47 90 1011.2
20260505193004 12 1 0.0 1.6 0.03 1.47 1.47 90 1011.2
20260505192904 12 1 0.0 1.6 0.03 1.47 1.47 90 1011.1
20260505192815 12 1 0.0 1.6 0.03 1.47 1.47 90 1011.2
20260505192704 12 1 0.0 1.6 0.03 1.47 1.47 90 1011.2
20260505192603 12 1 0.0 1.6 0.03 1.47 1.47 90 1011.2
20260505192504 12 1 0.0 1.6 0.03 1.47 1.47 90 1011.2
20260505192404 12 8 0.0 1.6 0.03 1.47 1.47 90 1011.2
20260505192204 12 10 0.0 1.6 0.03 1.47 1.47 90 1011.3
20260505192104 12 11 0.0 1.6 0.03 1.47 1.47 90 1011.1
20260505192004 12 11 0.0 1.6 0.03 1.47 1.47 90 1011.1
20260505191904 12 15 0.0 1.6 0.03 1.47 1.47 90 1011.2
20260505191805 12 17 0.0 1.6 0.03 1.47 1.47 90 1011.2
20260505191705 12 19 0.0 1.6 0.03 1.47 1.47 90 1011.2
20260505191513 12 27 0.0 1.6 0.03 1.47 1.47 90 1011.2
20260505191404 12 30 0.0 1.6 0.03 1.47 1.47 89 1011.2
20260505191304 12 30 0.0 1.6 0.03 1.47 1.47 89 1011.1
20260505191005 12 30 0.0 1.6 0.03 1.47 1.47 90 1011.1
20260505190904 12 30 0.0 1.6 0.03 1.47 1.47 90 1011.0
20260505190804 12 30 0.0 1.6 0.00 1.45 1.45 90 1011.1
20260505190705 12 30 0.0 1.6 0.00 1.45 1.45 89 1011.1
20260505190604 12 30 0.0 1.6 0.00 1.45 1.45 89 1011.1
20260505190403 12 30 0.0 1.6 0.00 1.45 1.45 89 1011.1
20260505190305 12 30 0.0 1.6 0.00 1.45 1.45 89 1011.1
20260505190209 12 31 0.0 1.6 0.00 1.45 1.45 89 1011.0
20260505190105 12 25 0.0 1.6 0.00 1.45 1.45 89 1011.0
20260505190004 12 25 0.0 1.6 0.00 1.45 1.45 89 1011.1
20260505185704 12 19 0.0 1.6 0.00 1.45 1.45 90 1011.0
20260505185603 12 17 0.0 1.6 0.00 1.45 1.45 90 1011.1
20260505185504 12 16 0.0 1.6 0.00 1.45 1.45 89 1011.0
20260505185404 12 13 0.0 1.6 0.00 1.45 1.45 89 1011.0
20260505185305 12 11 0.0 1.6 0.00 1.45 1.45 89 1010.9
20260505185104 12 1 0.0 1.6 0.00 1.45 1.45 89 1010.9
20260505185004 12 1 0.0 1.6 0.03 1.45 1.45 89 1010.9
20260505184904 12 1 0.0 1.6 0.03 1.45 1.45 89 1010.9
20260505184804 12 1 0.0 1.6 0.03 1.45 1.45 89 1010.9
20260505184704 12 1 0.0 1.6 0.03 1.45 1.45 89 1010.9
20260505184605 12 1 0.0 1.6 0.03 1.45 1.45 89 1010.9
20260505184504 12 1 0.0 1.6 0.03 1.45 1.45 89 1011.0
20260505184304 12 7 0.0 3.2 0.03 1.45 1.45 89 1010.9
20260505184204 12 9 0.0 3.2 0.03 1.45 1.45 89 1011.0
20260505184003 12 11 0.0 3.2 0.03 1.45 1.45 89 1010.9
20260505183904 12 11 0.0 3.2 0.03 1.45 1.45 89 1011.0
20260505183803 12 11 0.0 3.2 0.03 1.45 1.45 89 1010.9
20260505183708 12 11 0.0 3.2 0.03 1.45 1.45 89 1011.0
20260505183604 12 10 0.0 3.2 0.03 1.45 1.45 89 1010.9
20260505183504 12 5 0.0 3.2 0.03 1.45 1.45 89 1010.9
20260505183415 12 3 0.0 3.2 0.03 1.45 1.45 89 1010.9
20260505183304 12 1 0.0 3.2 0.03 1.45 1.45 89 1011.0
20260505183104 12 355 0.0 3.2 0.03 1.45 1.45 90 1011.0
20260505183004 12 354 0.0 3.2 0.03 1.45 1.45 89 1010.9
20260505182904 12 351 0.0 3.2 0.03 1.45 1.45 89 1010.9
20260505182804 12 351 0.0 3.2 0.03 1.45 1.45 89 1010.9
20260505182704 12 350 0.0 3.2 0.03 1.45 1.45 89 1011.0
20260505182604 12 350 0.0 3.2 0.03 1.45 1.45 89 1010.9
20260505182504 12 350 0.0 3.2 0.03 1.45 1.45 90 1010.9
20260505182410 12 350 0.0 1.6 0.03 1.45 1.45 89 1011.0
20260505182306 12 350 0.0 1.6 0.03 1.45 1.45 89 1011.0
20260505182203 12 350 0.0 1.6 0.03 1.45 1.45 89 1011.0
20260505182115 12 350 0.0 1.6 0.03 1.45 1.45 90 1010.9
20260505181904 12 350 0.0 1.6 0.03 1.45 1.45 89 1011.0
20260505181804 12 350 0.0 1.6 0.03 1.45 1.45 89 1011.0
20260505181704 12 350 0.0 1.6 0.03 1.45 1.45 90 1010.9
20260505181604 12 350 0.0 1.6 0.03 1.45 1.45 90 1010.9
20260505181505 12 350 0.0 1.6 0.03 1.45 1.45 89 1010.9
20260505181403 12 350 0.0 1.6 0.03 1.45 1.45 89 1010.9
20260505181304 12 350 0.0 1.6 0.03 1.45 1.45 89 1010.9
20260505181103 12 350 0.0 1.6 0.03 1.45 1.45 90 1010.9
20260505181005 12 350 0.0 3.2 0.03 1.45 1.45 89 1011.0
20260505180903 12 350 0.0 3.2 0.03 1.45 1.45 89 1011.0
20260505180809 12 350 0.0 3.2 0.03 1.45 1.45 90 1010.9
20260505180604 12 350 0.0 3.2 0.03 1.45 1.45 89 1010.9
20260505180404 12 349 0.0 3.2 0.03 1.45 1.45 89 1010.9
20260505180203 12 349 1.6 3.2 0.03 1.45 1.45 89 1010.9
20260505180104 12 349 1.6 3.2 0.03 1.45 1.45 89 1010.8
20260505180004 12 349 0.0 3.2 0.03 1.45 1.45 89 1011.0
20260505175803 12 350 1.6 3.2 0.03 1.45 1.45 89 1011.0
20260505175704 12 350 1.6 3.2 0.03 1.45 1.45 89 1010.9
20260505175604 12 351 1.6 3.2 0.03 1.45 1.45 89 1011.0
20260505175510 12 352 1.6 3.2 0.03 1.45 1.45 89 1010.9
20260505175404 12 352 0.0 3.2 0.03 1.45 1.45 89 1010.9
20260505175305 12 353 0.0 3.2 0.03 1.45 1.45 89 1010.9
20260505175104 12 354 1.6 3.2 0.03 1.45 1.45 89 1010.9
20260505175004 12 355 1.6 3.2 0.00 1.45 1.45 89 1011.0
20260505174904 12 356 0.0 3.2 0.00 1.45 1.45 89 1011.0
20260505174803 12 357 0.0 3.2 0.00 1.45 1.45 89 1010.9
20260505174605 12 355 0.0 3.2 0.00 1.45 1.45 89 1011.0
20260505174504 12 354 0.0 3.2 0.00 1.45 1.45 89 1011.0
20260505174404 12 354 0.0 3.2 0.00 1.45 1.45 89 1010.8
20260505174303 12 354 1.6 3.2 0.00 1.45 1.45 89 1010.9
20260505174209 12 352 0.0 3.2 0.00 1.45 1.45 89 1010.9
20260505174104 12 352 0.0 3.2 0.00 1.45 1.45 89 1010.9
20260505173916 12 351 0.0 1.6 0.00 1.45 1.45 89 1010.9
20260505173804 12 351 0.0 1.6 0.00 1.45 1.45 89 1010.9
20260505173703 12 351 0.0 1.6 0.00 1.45 1.45 89 1011.0
20260505173603 12 351 0.0 1.6 0.00 1.45 1.45 89 1010.9
20260505173504 12 352 0.0 1.6 0.00 1.45 1.45 89 1010.9
20260505173404 12 352 0.0 1.6 0.00 1.45 1.45 89 1010.9
20260505173304 12 352 0.0 1.6 0.00 1.45 1.45 89 1010.9
20260505173204 12 351 0.0 1.6 0.00 1.45 1.45 89 1010.9
20260505173004 12 351 0.0 3.2 0.00 1.45 1.45 89 1011.0
20260505172904 12 351 0.0 3.2 0.00 1.45 1.45 89 1011.0
20260505172704 12 352 0.0 3.2 0.00 1.45 1.45 89 1010.9
20260505172610 12 352 0.0 3.2 0.00 1.45 1.45 89 1011.0
20260505172504 12 352 0.0 3.2 0.00 1.45 1.45 89 1011.0
20260505172204 12 20 1.6 3.2 0.00 1.45 1.45 90 1011.0
20260505172103 12 44 1.6 3.2 0.00 1.45 1.45 90 1011.0
20260505172004 12 69 1.6 3.2 0.00 1.45 1.45 89 1010.9
20260505171904 12 85 1.6 4.8 0.00 1.45 1.45 90 1011.0
20260505171804 12 95 1.6 4.8 0.00 1.45 1.45 89 1011.0
20260505171504 12 115 1.6 4.8 0.00 1.45 1.45 89 1011.0
20260505171404 12 121 1.6 4.8 0.00 1.45 1.45 89 1011.0
20260505171205 12 123 1.6 4.8 0.00 1.45 1.45 89 1011.1
20260505171104 12 124 1.6 4.8 0.00 1.45 1.45 89 1011.1
20260505171009 12 125 1.6 4.8 0.00 1.45 1.45 89 1011.1
20260505170904 12 125 1.6 4.8 0.00 1.45 1.45 90 1011.1
20260505170805 12 126 1.6 3.2 0.00 1.45 1.45 89 1011.0
20260505170604 12 126 1.6 3.2 0.00 1.45 1.45 89 1011.0
20260505170504 12 126 1.6 3.2 0.00 1.45 1.45 89 1011.0
20260505170403 12 125 1.6 3.2 0.00 1.45 1.45 89 1011.0
20260505170304 12 125 1.6 3.2 0.00 1.45 1.45 89 1011.1
20260505170203 12 124 1.6 3.2 0.00 1.45 1.45 89 1011.1
20260505170004 12 123 1.6 1.6 0.00 1.45 1.45 89 1011.1
20260505165804 12 123 1.6 3.2 0.00 1.45 1.45 89 1011.1
20260505165704 12 123 1.6 3.2 0.00 1.45 1.45 89 1011.2
20260505165604 12 123 1.6 3.2 0.00 1.45 1.45 90 1011.2
20260505165504 12 123 0.0 3.2 0.00 1.45 1.45 90 1011.1
20260505165306 12 123 0.0 3.2 0.00 1.45 1.45 89 1011.1
20260505165204 12 123 0.0 3.2 0.00 1.45 1.45 89 1011.2
20260505165116 12 123 0.0 3.2 0.00 1.45 1.45 89 1011.1
20260505165004 12 124 0.0 3.2 0.00 1.45 1.45 89 1011.2
20260505164804 12 125 0.0 1.6 0.00 1.45 1.45 89 1011.1
20260505164703 12 125 0.0 1.6 0.00 1.45 1.45 89 1011.2
20260505164604 12 125 0.0 1.6 0.00 1.45 1.45 89 1011.1
20260505164403 12 125 0.0 1.6 0.00 1.45 1.45 89 1011.2
20260505164304 12 125 0.0 1.6 0.00 1.45 1.45 89 1011.2
20260505164204 12 125 0.0 1.6 0.00 1.45 1.45 89 1011.1
20260505164109 12 125 0.0 1.6 0.00 1.45 1.45 89 1011.2
20260505164004 12 125 0.0 1.6 0.00 1.45 1.45 89 1011.1
20260505163904 12 125 0.0 1.6 0.00 1.45 1.45 89 1011.2
20260505163815 12 125 0.0 1.6 0.00 1.45 1.45 89 1011.2
20260505163704 12 126 0.0 1.6 0.00 1.45 1.45 89 1011.2
20260505163604 12 126 0.0 1.6 0.00 1.45 1.45 89 1011.2
20260505163504 12 127 0.0 1.6 0.00 1.45 1.45 89 1011.2
20260505163404 12 128 0.0 1.6 0.00 1.45 1.45 89 1011.2
20260505163304 12 129 0.0 1.6 0.00 1.45 1.45 89 1011.2
20260505163204 12 126 0.0 1.6 0.00 1.45 1.45 88 1011.2
20260505163004 12 75 0.0 1.6 0.00 1.45 1.45 88 1011.3
20260505162903 12 72 0.0 1.6 0.00 1.45 1.45 88 1011.2
20260505162806 12 65 0.0 1.6 0.00 1.45 1.45 88 1011.4
20260505162704 12 48 0.0 1.6 0.00 1.45 1.45 88 1011.2
20260505162604 12 43 0.0 1.6 0.00 1.45 1.45 88 1011.3
20260505162515 12 30 0.0 1.6 0.00 1.45 1.45 88 1011.2
20260505162404 12 21 0.0 1.6 0.00 1.45 1.45 88 1011.2
20260505162203 12 15 0.0 1.6 0.00 1.45 1.45 88 1011.2
20260505162004 12 35 0.0 1.6 0.00 1.45 1.45 88 1011.2
20260505161905 12 36 0.0 1.6 0.00 1.45 1.45 88 1011.4
20260505161803 12 42 0.0 1.6 0.00 1.45 1.45 88 1011.3
20260505161505 12 72 0.0 1.6 0.00 1.45 1.45 87 1011.3
20260505161404 12 81 0.0 1.6 0.00 1.45 1.45 87 1011.3
20260505161303 12 88 0.0 1.6 0.00 1.45 1.45 88 1011.4
20260505161207 12 89 0.0 1.6 0.00 1.45 1.45 87 1011.3
20260505161104 12 89 0.0 1.6 0.00 1.45 1.45 87 1011.3
20260505161004 12 95 0.0 1.6 0.00 1.45 1.45 87 1011.3
20260505160915 12 98 0.0 1.6 0.00 1.45 1.45 87 1011.2
20260505160805 12 111 0.0 1.6 0.00 1.45 1.45 87 1011.4
20260505160704 12 111 0.0 1.6 0.00 1.45 1.45 87 1011.2
20260505160603 12 110 0.0 1.6 0.00 1.45 1.45 87 1011.3
20260505160504 12 108 0.0 1.6 0.00 1.45 1.45 88 1011.2
20260505160403 12 106 0.0 1.6 0.00 1.45 1.45 87 1011.3
20260505160303 12 98 0.0 1.6 0.00 1.45 1.45 87 1011.3
20260505160204 12 95 0.0 1.6 0.00 1.45 1.45 88 1011.2
20260505160104 12 95 0.0 1.6 0.00 1.45 1.45 88 1011.3
20260505153204 12 21 1.6 4.8 0.00 1.45 1.45 88 1011.6
20260505153105 12 10 1.6 4.8 0.00 1.45 1.45 88 1011.6
20260505153015 12 6 1.6 4.8 0.00 1.45 1.45 88 1011.6
20260505152904 12 6 1.6 4.8 0.00 1.45 1.45 88 1011.6
20260505152804 12 6 1.6 4.8 0.00 1.45 1.45 88 1011.5
20260505152704 12 6 1.6 4.8 0.00 1.45 1.45 88 1011.5
20260505152604 12 6 1.6 4.8 0.00 1.45 1.45 87 1011.5
20260505152504 12 2 1.6 4.8 0.00 1.45 1.45 88 1011.4
20260505152403 12 342 1.6 3.2 0.00 1.45 1.45 88 1011.6
20260505152305 12 335 1.6 3.2 0.00 1.45 1.45 88 1011.5
20260505152204 12 337 0.0 3.2 0.00 1.45 1.45 88 1011.6
20260505152104 12 352 0.0 3.2 0.00 1.45 1.45 88 1011.5
20260505152004 12 355 0.0 3.2 0.00 1.45 1.45 88 1011.5
20260505151904 12 352 0.0 3.2 0.00 1.45 1.45 88 1011.4
20260505151708 12 349 1.6 3.2 0.00 1.45 1.45 88 1011.5
20260505151605 12 343 1.6 3.2 0.00 1.45 1.45 88 1011.5
20260505151504 12 340 1.6 3.2 0.00 1.45 1.45 89 1011.6
20260505151414 12 331 1.6 3.2 0.00 1.45 1.45 89 1011.6
20260505151304 12 326 0.0 3.2 0.00 1.45 1.45 88 1011.7
20260505151204 12 318 0.0 3.2 0.00 1.45 1.45 88 1011.6
20260505151104 12 274 0.0 3.2 0.00 1.45 1.45 88 1011.5
20260505151004 12 260 0.0 3.2 0.00 1.45 1.45 88 1011.6
20260505150903 12 232 0.0 3.2 0.00 1.45 1.45 89 1011.5
20260505150804 12 225 0.0 3.2 0.00 1.45 1.45 89 1011.6
20260505150504 12 217 0.0 3.2 0.00 1.45 1.45 88 1011.5
20260505150410 12 218 0.0 3.2 0.00 1.45 1.45 88 1011.6
20260505150303 12 218 0.0 3.2 0.00 1.45 1.45 89 1011.6
20260505150204 12 218 0.0 3.2 0.00 1.45 1.45 89 1011.4
20260505140616 11 356 3.2 6.4 0.05 1.45 1.45 90 1011.8
20260505140504 11 356 3.2 6.4 0.05 1.45 1.45 89 1011.8
20260505140404 11 355 3.2 6.4 0.05 1.45 1.45 90 1011.8
20260505140304 11 352 3.2 6.4 0.05 1.45 1.45 90 1011.7
20260505140205 11 350 3.2 6.4 0.05 1.45 1.45 90 1011.7
20260505140103 11 353 3.2 6.4 0.05 1.45 1.45 90 1011.7
20260505130304 12 9 4.8 8.0 0.03 1.40 1.40 89 1012.1
20260505130203 12 9 4.8 8.0 0.03 1.40 1.40 89 1012.1
20260505130104 12 6 3.2 8.0 0.03 1.40 1.40 89 1012.1
20260505125004 12 3 3.2 6.4 0.05 1.40 1.40 89 1012.1
20260505124903 12 2 3.2 6.4 0.05 1.40 1.40 89 1012.1
20260505124803 12 1 3.2 8.0 0.03 1.37 1.37 89 1012.2
20260505124704 12 359 3.2 8.0 0.03 1.37 1.37 89 1012.1
20260505124604 12 357 3.2 9.7 0.03 1.37 1.37 89 1012.2
20260505124504 12 357 4.8 9.7 0.03 1.37 1.37 89 1012.1
20260505124304 12 358 4.8 9.7 0.03 1.37 1.37 89 1012.1
20260505124208 12 357 4.8 9.7 0.03 1.37 1.37 89 1012.1
20260505124103 12 356 3.2 9.7 0.03 1.37 1.37 89 1012.1
20260505124005 12 355 4.8 9.7 0.03 1.37 1.37 89 1012.1
20260505123804 12 356 4.8 9.7 0.03 1.37 1.37 88 1012.0
20260505123604 12 359 4.8 9.7 0.03 1.37 1.37 89 1012.0
20260505123504 12 358 4.8 9.7 0.03 1.37 1.37 88 1012.0
20260505123404 12 358 4.8 9.7 0.03 1.37 1.37 89 1012.0
20260505123304 12 356 4.8 9.7 0.03 1.37 1.37 89 1012.1
20260505123203 12 354 4.8 9.7 0.03 1.37 1.37 88 1012.1
20260505123104 12 356 4.8 9.7 0.03 1.37 1.37 88 1011.9
20260505122903 12 356 4.8 9.7 0.03 1.37 1.37 88 1011.9
20260505122703 12 356 6.4 11.3 0.03 1.37 1.37 88 1011.9
20260505122610 12 355 6.4 11.3 0.03 1.37 1.37 88 1011.9
20260505122403 12 355 6.4 11.3 0.03 1.37 1.37 88 1012.0
20260505122315 12 357 6.4 11.3 0.03 1.37 1.37 88 1012.0
20260505122204 12 1 6.4 11.3 0.03 1.37 1.37 88 1012.0
20260505122103 12 359 6.4 11.3 0.03 1.37 1.37 88 1012.0
20260505122004 12 359 4.8 11.3 0.03 1.37 1.37 88 1012.1
20260505121803 12 358 4.8 9.7 0.03 1.37 1.37 88 1012.0
20260505121704 12 357 4.8 9.7 0.03 1.37 1.37 88 1012.0
20260505121504 12 357 4.8 9.7 0.03 1.37 1.37 88 1012.1
20260505121404 12 358 4.8 9.7 0.03 1.37 1.37 88 1012.0
20260505121307 12 358 4.8 9.7 0.03 1.37 1.37 88 1012.0
20260505121204 12 355 4.8 9.7 0.03 1.37 1.37 88 1012.0
20260505121103 12 358 4.8 9.7 0.03 1.37 1.37 88 1012.0
20260505121014 12 359 4.8 9.7 0.03 1.37 1.37 88 1012.1
20260505120904 12 6 4.8 9.7 0.05 1.37 1.37 88 1012.0
20260505120803 12 8 4.8 9.7 0.05 1.37 1.37 88 1011.9
20260505120703 12 12 4.8 8.0 0.05 1.37 1.37 88 1012.0
20260505120603 12 15 3.2 8.0 0.05 1.37 1.37 88 1012.0
20260505120504 12 16 3.2 11.3 0.05 1.37 1.37 88 1012.0
20260505120404 12 12 4.8 11.3 0.05 1.37 1.37 88 1012.0
20260505120304 12 11 4.8 11.3 0.05 1.37 1.37 88 1012.0
20260505120204 12 12 4.8 11.3 0.05 1.37 1.37 88 1012.1
20260505120104 12 10 4.8 11.3 0.05 1.37 1.37 88 1012.0
20260505120009 12 9 4.8 11.3 0.05 1.37 1.37 88 1012.1
20260505115903 12 9 6.4 11.3 0.05 1.37 1.37 88 1012.0
20260505115604 12 10 6.4 11.3 0.05 1.37 1.37 88 1012.1
20260505115504 12 9 6.4 11.3 0.03 1.37 1.37 88 1012.1
20260505115403 12 11 6.4 9.7 0.03 1.37 1.37 88 1012.1
20260505115305 12 10 6.4 9.7 0.03 1.37 1.37 88 1012.1
20260505115204 12 10 6.4 11.3 0.03 1.37 1.37 88 1012.2
20260505115005 12 10 6.4 11.3 0.03 1.37 1.37 87 1012.1
20260505114904 12 7 6.4 11.3 0.03 1.37 1.37 88 1012.1
20260505114804 12 5 6.4 11.3 0.03 1.37 1.37 88 1012.0
20260505114704 12 4 6.4 11.3 0.03 1.37 1.37 88 1012.1
20260505114603 12 2 6.4 11.3 0.03 1.37 1.37 88 1012.1
20260505114408 12 3 6.4 11.3 0.03 1.37 1.37 87 1012.1
20260505114304 12 4 6.4 11.3 0.03 1.37 1.37 87 1012.1
20260505114203 12 3 6.4 11.3 0.03 1.37 1.37 87 1012.2
20260505114115 12 3 6.4 11.3 0.03 1.37 1.37 88 1012.1
20260505113904 12 359 6.4 11.3 0.03 1.37 1.37 87 1012.2
20260505113804 12 358 6.4 11.3 0.03 1.37 1.37 87 1012.2
20260505113704 12 358 4.8 11.3 0.03 1.37 1.37 88 1012.2
20260505113605 12 1 4.8 11.3 0.03 1.37 1.37 87 1012.2
20260505113504 12 359 4.8 9.7 0.03 1.37 1.37 87 1012.1
20260505113403 12 358 4.8 9.7 0.03 1.37 1.37 87 1012.1
20260505113304 12 358 4.8 9.7 0.03 1.37 1.37 87 1012.1
20260505113204 12 359 4.8 9.7 0.03 1.37 1.37 87 1012.2
20260505113103 12 358 4.8 9.7 0.03 1.37 1.37 87 1012.1
20260505113004 12 3 4.8 9.7 0.03 1.37 1.37 87 1012.1
20260505112903 12 11 3.2 8.0 0.03 1.37 1.37 87 1012.1
20260505112810 12 15 4.8 8.0 0.03 1.37 1.37 87 1012.2
20260505112704 12 15 4.8 8.0 0.03 1.37 1.37 87 1012.2
20260505112604 12 16 4.8 9.7 0.03 1.37 1.37 86 1012.2
20260505112518 12 23 4.8 9.7 0.03 1.37 1.37 86 1012.2
20260505112104 12 61 4.8 9.7 0.03 1.37 1.37 86 1012.2
20260505111904 13 68 4.8 9.7 0.03 1.37 1.37 86 1012.1
20260505111804 13 68 4.8 9.7 0.03 1.37 1.37 87 1012.2
20260505111703 12 75 3.2 9.7 0.03 1.37 1.37 86 1012.3
20260505111604 12 76 3.2 8.0 0.03 1.37 1.37 86 1012.2
20260505111504 12 73 3.2 8.0 0.03 1.37 1.37 86 1012.2
20260505111405 12 68 3.2 8.0 0.03 1.37 1.37 87 1012.2
20260505111303 12 72 3.2 8.0 0.03 1.37 1.37 86 1012.2
20260505111204 12 68 1.6 8.0 0.03 1.37 1.37 87 1012.3
20260505111104 12 74 1.6 8.0 0.03 1.37 1.37 86 1012.2
20260505111005 12 66 1.6 4.8 0.00 1.35 1.35 86 1012.2
20260505110903 12 43 1.6 9.7 0.00 1.35 1.35 87 1012.2
20260505110804 12 23 3.2 11.3 0.00 1.35 1.35 87 1012.3
20260505110703 12 19 3.2 12.9 0.00 1.35 1.35 87 1012.3
20260505110603 12 15 3.2 12.9 0.00 1.35 1.35 86 1012.3
20260505110504 12 12 3.2 12.9 0.00 1.35 1.35 87 1012.3
20260505110404 12 8 3.2 12.9 0.00 1.35 1.35 87 1012.3
20260505110303 12 359 4.8 12.9 0.00 1.35 1.35 87 1012.4
20260505110204 12 354 4.8 12.9 0.00 1.35 1.35 87 1012.3
20260505110104 12 352 4.8 12.9 0.00 1.35 1.35 87 1012.3
20260505102204 12 355 3.2 8.0 0.03 1.35 1.35 88 1012.6
20260505102114 12 354 3.2 8.0 0.03 1.35 1.35 87 1012.5
20260505102004 12 352 3.2 8.0 0.03 1.35 1.35 87 1012.5
20260505101804 12 352 3.2 6.4 0.03 1.35 1.35 87 1012.5
20260505101704 12 350 3.2 6.4 0.03 1.35 1.35 87 1012.5
20260505101603 12 347 1.6 6.4 0.03 1.35 1.35 87 1012.5
20260505101504 12 345 1.6 6.4 0.03 1.35 1.35 87 1012.6
20260505101403 12 341 1.6 6.4 0.03 1.35 1.35 87 1012.5
20260505101304 12 327 1.6 4.8 0.03 1.35 1.35 87 1012.5
20260505101204 12 332 1.6 4.8 0.05 1.35 1.35 87 1012.5
20260505101108 12 335 1.6 4.8 0.05 1.35 1.35 88 1012.5
20260505101004 12 339 1.6 4.8 0.05 1.35 1.35 88 1012.4
20260505100814 12 343 1.6 4.8 0.05 1.35 1.35 88 1012.5
20260505100704 12 349 3.2 8.0 0.05 1.35 1.35 88 1012.6
20260505100603 12 352 3.2 8.0 0.05 1.35 1.35 87 1012.6
20260505100404 12 357 3.2 8.0 0.05 1.35 1.35 88 1012.5
20260505100304 12 359 3.2 8.0 0.05 1.35 1.35 88 1012.6
20260505100204 12 1 3.2 8.0 0.05 1.35 1.35 88 1012.6
20260505100004 12 5 3.2 8.0 0.05 1.35 1.35 88 1012.5
20260505095904 12 5 3.2 8.0 0.05 1.35 1.35 88 1012.5
20260505095703 12 4 3.2 6.4 0.05 1.35 1.35 88 1012.6
20260505095604 12 3 1.6 6.4 0.05 1.35 1.35 88 1012.5
20260505095515 12 4 1.6 6.4 0.05 1.35 1.35 88 1012.6
20260505095403 12 5 1.6 6.4 0.05 1.35 1.35 88 1012.6
20260505095204 12 3 1.6 4.8 0.05 1.35 1.35 88 1012.6
20260505095104 12 358 3.2 6.4 0.05 1.35 1.35 88 1012.7
20260505095004 12 359 3.2 8.0 0.05 1.35 1.35 88 1012.6
20260505094904 12 1 3.2 8.0 0.05 1.35 1.35 88 1012.6
20260505094805 12 359 3.2 8.0 0.05 1.35 1.35 88 1012.6
20260505094513 12 358 3.2 8.0 0.05 1.35 1.35 88 1012.7
20260505094403 12 355 3.2 8.0 0.05 1.35 1.35 88 1012.6
20260505094304 12 356 3.2 8.0 0.05 1.35 1.35 88 1012.6
20260505094203 12 355 3.2 8.0 0.05 1.35 1.35 87 1012.6
20260505094103 12 355 3.2 8.0 0.05 1.35 1.35 88 1012.7
20260505093903 12 355 3.2 6.4 0.05 1.35 1.35 88 1012.7
20260505093703 12 357 3.2 6.4 0.05 1.35 1.35 88 1012.7
20260505093604 12 354 1.6 4.8 0.05 1.35 1.35 88 1012.6
20260505093507 12 358 1.6 4.8 0.05 1.35 1.35 88 1012.7
20260505093404 12 356 1.6 4.8 0.05 1.35 1.35 88 1012.6
20260505093304 12 2 1.6 4.8 0.05 1.35 1.35 88 1012.6
20260505093214 12 3 1.6 4.8 0.05 1.35 1.35 88 1012.7
20260505093104 12 10 1.6 4.8 0.05 1.35 1.35 88 1012.6
20260505092903 12 6 1.6 4.8 0.05 1.35 1.35 88 1012.6
20260505092804 12 3 1.6 4.8 0.05 1.35 1.35 88 1012.6
20260505092704 12 349 1.6 4.8 0.03 1.32 1.32 88 1012.7
20260505092604 12 7 1.6 4.8 0.03 1.32 1.32 88 1012.7
20260505092504 12 1 1.6 4.8 0.03 1.32 1.32 88 1012.7
20260505092305 12 10 1.6 4.8 0.03 1.32 1.32 88 1012.7
20260505092212 12 16 1.6 4.8 0.05 1.32 1.32 88 1012.8
20260505092103 12 18 1.6 4.8 0.05 1.32 1.32 88 1012.8
20260505092004 12 25 1.6 4.8 0.05 1.32 1.32 88 1012.7
20260505091904 12 20 1.6 4.8 0.05 1.32 1.32 88 1012.8
20260505091603 12 21 1.6 4.8 0.05 1.32 1.32 88 1012.8
20260505091504 12 23 1.6 4.8 0.05 1.32 1.32 88 1012.7
20260505091404 12 24 1.6 4.8 0.05 1.32 1.32 88 1012.7
20260505091303 12 21 1.6 4.8 0.05 1.32 1.32 88 1012.7
20260505091207 12 17 1.6 4.8 0.03 1.30 1.30 88 1012.7
20260505091104 12 34 1.6 6.4 0.03 1.30 1.30 88 1012.7
20260505091004 12 46 1.6 6.4 0.03 1.30 1.30 89 1012.7
20260505090804 12 52 1.6 6.4 0.03 1.30 1.30 89 1012.7
20260505090504 12 73 1.6 6.4 0.03 1.30 1.30 89 1012.6
20260505090403 12 68 1.6 8.0 0.03 1.30 1.30 89 1012.6
20260505090304 12 69 3.2 8.0 0.03 1.30 1.30 89 1012.6
20260505090204 12 67 3.2 8.0 0.03 1.30 1.30 89 1012.6
20260505090004 12 66 3.2 8.0 0.03 1.30 1.30 90 1012.6
20260505085908 12 89 3.2 8.0 0.03 1.30 1.30 89 1012.5
20260505085804 11 90 3.2 8.0 0.03 1.30 1.30 89 1012.7
20260505085703 11 89 3.2 8.0 0.03 1.30 1.30 89 1012.6
20260505085504 12 92 3.2 8.0 0.05 1.30 1.30 89 1012.5
20260505085304 12 120 1.6 6.4 0.05 1.30 1.30 90 1012.6
20260505085204 12 119 1.6 6.4 0.05 1.30 1.30 90 1012.4
20260505085104 12 118 1.6 6.4 0.05 1.30 1.30 90 1012.6
20260505084903 12 90 1.6 6.4 0.05 1.30 1.30 90 1012.6
20260505084803 12 85 1.6 6.4 0.05 1.30 1.30 90 1012.6
20260505084703 12 70 1.6 3.2 0.05 1.30 1.30 90 1012.8
20260505084607 11 66 1.6 3.2 0.05 1.30 1.30 90 1012.7
20260505084504 11 63 1.6 3.2 0.05 1.30 1.30 90 1012.7
20260505084404 11 40 1.6 3.2 0.05 1.30 1.30 90 1012.7
20260505084203 11 1 1.6 6.4 0.05 1.30 1.30 90 1012.8
20260505084104 11 351 1.6 6.4 0.05 1.30 1.30 90 1012.8
20260505084004 11 350 1.6 6.4 0.05 1.30 1.30 90 1012.8
20260505083904 11 349 1.6 6.4 0.05 1.30 1.30 90 1012.7
20260505083803 11 350 1.6 6.4 0.08 1.30 1.30 90 1012.8
20260505083703 11 351 3.2 6.4 0.08 1.30 1.30 90 1012.8
20260505083604 11 353 3.2 9.7 0.08 1.30 1.30 90 1012.7
20260505083504 11 354 3.2 9.7 0.08 1.30 1.30 90 1012.8
20260505083404 11 355 4.8 9.7 0.08 1.30 1.30 90 1012.7
20260505083306 11 355 4.8 9.7 0.10 1.30 1.30 90 1012.7
20260505083204 11 354 4.8 9.7 0.10 1.30 1.30 90 1012.7
20260505083105 11 354 4.8 9.7 0.10 1.30 1.30 90 1012.8
20260505083013 11 356 4.8 9.7 0.10 1.30 1.30 90 1012.8
20260505082804 11 357 4.8 9.7 0.13 1.30 1.30 90 1012.7
20260505082703 11 357 4.8 9.7 0.15 1.30 1.30 90 1012.8
20260505082603 11 356 4.8 9.7 0.15 1.30 1.30 90 1012.7
20260505082404 11 355 4.8 9.7 0.15 1.30 1.30 90 1012.8
20260505082203 11 356 4.8 9.7 0.18 1.27 1.27 90 1012.8
20260505082103 11 357 4.8 9.7 0.18 1.27 1.27 90 1012.8
20260505082006 11 356 4.8 9.7 0.18 1.27 1.27 90 1012.8
20260505081904 11 356 4.8 9.7 0.20 1.27 1.27 90 1012.8
20260505081804 11 356 4.8 9.7 0.20 1.27 1.27 90 1012.8
20260505081603 11 359 6.4 9.7 0.23 1.27 1.27 90 1012.7
20260505081504 11 359 6.4 9.7 0.23 1.27 1.27 90 1012.7
20260505081403 11 358 4.8 9.7 0.25 1.27 1.27 91 1012.6
20260505081303 11 357 4.8 9.7 0.25 1.27 1.27 91 1012.8
20260505081204 11 355 6.4 9.7 0.25 1.27 1.27 91 1012.7
20260505081104 11 356 6.4 9.7 0.28 1.27 1.27 91 1012.7
20260505081004 11 356 6.4 9.7 0.28 1.27 1.27 91 1012.7
20260505080904 11 356 4.8 9.7 0.28 1.27 1.27 91 1012.7
20260505080805 11 359 4.8 9.7 0.28 1.27 1.27 91 1012.6
20260505080704 11 4 4.8 9.7 0.30 1.27 1.27 91 1012.7
20260505080604 11 5 4.8 9.7 0.30 1.27 1.27 91 1012.7
20260505080504 11 6 4.8 9.7 0.33 1.27 1.27 91 1012.7
20260505080405 11 12 4.8 11.3 0.33 1.27 1.27 91 1012.6
20260505080303 11 17 4.8 11.3 0.33 1.27 1.27 91 1012.6
20260505080203 11 26 4.8 11.3 0.36 1.27 1.27 91 1012.8
20260505080113 11 30 4.8 11.3 0.36 1.27 1.27 91 1012.8
20260505080004 11 29 4.8 11.3 0.36 1.27 1.27 91 1012.7
20260505075904 11 28 4.8 11.3 0.38 1.27 1.27 90 1012.8
20260505075803 11 27 4.8 11.3 0.38 1.27 1.27 91 1012.8
20260505075703 11 27 3.2 11.3 0.41 1.27 1.27 91 1012.8
20260505075603 11 26 3.2 11.3 0.38 1.27 1.27 90 1012.8
20260505075504 11 22 3.2 11.3 0.38 1.27 1.27 90 1012.8
20260505075304 11 15 3.2 9.7 0.41 1.27 1.27 91 1012.8
20260505075203 11 8 3.2 9.7 0.41 1.27 1.27 91 1012.8
20260505075105 11 6 3.2 9.7 0.41 1.27 1.27 91 1012.9
20260505075004 11 9 3.2 9.7 0.43 1.27 1.27 91 1012.9
20260505074813 11 7 3.2 9.7 0.43 1.27 1.27 91 1012.9
20260505074705 11 5 3.2 9.7 0.43 1.27 1.27 91 1012.8
20260505074604 11 1 1.6 6.4 0.43 1.27 1.27 91 1012.8
20260505074403 11 355 3.2 9.7 0.48 1.27 1.27 91 1012.8
20260505074303 11 354 3.2 9.7 0.48 1.27 1.27 91 1012.9
20260505074204 11 355 3.2 9.7 0.46 1.24 1.24 91 1012.9
20260505074004 11 351 4.8 9.7 0.48 1.24 1.24 91 1012.8
20260505073903 11 348 4.8 9.7 0.48 1.24 1.24 91 1012.8
20260505073805 11 348 6.4 9.7 0.46 1.22 1.22 91 1012.9
20260505073705 11 347 6.4 11.3 0.48 1.22 1.22 91 1012.8
20260505073514 11 348 6.4 11.3 0.51 1.22 1.22 91 1012.8
20260505073404 11 349 6.4 11.3 0.48 1.19 1.19 91 1012.8
20260505073303 11 350 6.4 11.3 0.51 1.19 1.19 91 1012.9
20260505073104 11 351 6.4 11.3 0.51 1.19 1.19 91 1012.8
20260505073005 11 350 6.4 11.3 0.48 1.17 1.17 91 1012.9
20260505072804 11 354 6.4 11.3 0.46 1.17 1.17 91 1012.8
20260505072704 11 354 6.4 11.3 0.48 1.17 1.17 91 1012.9
20260505072604 11 356 6.4 11.3 0.46 1.14 1.14 91 1012.7
20260505072507 11 357 6.4 11.3 0.46 1.14 1.14 91 1012.8
20260505072404 11 356 6.4 11.3 0.48 1.14 1.14 91 1012.8
20260505072305 11 353 6.4 11.3 0.46 1.12 1.12 91 1012.8
20260505072103 11 352 6.4 11.3 0.46 1.09 1.09 91 1012.8
20260505072004 11 353 6.4 11.3 0.43 1.09 1.09 90 1012.8
20260505071904 11 353 6.4 11.3 0.46 1.09 1.09 91 1012.8
20260505071704 11 350 6.4 11.3 0.46 1.07 1.07 90 1012.9
20260505071604 11 349 6.4 11.3 0.46 1.04 1.04 91 1012.8
20260505071506 11 348 6.4 11.3 0.46 1.04 1.04 91 1012.8
20260505071403 11 351 6.4 11.3 0.46 1.02 1.02 91 1012.7
20260505071304 11 355 6.4 11.3 0.46 1.02 1.02 90 1012.8
20260505071104 11 357 4.8 11.3 0.46 0.99 0.99 90 1012.7
20260505071003 11 1 4.8 11.3 0.46 0.99 0.99 90 1012.6
20260505070903 11 2 3.2 11.3 0.46 0.99 0.99 91 1012.6
20260505070804 11 12 3.2 11.3 0.43 0.99 0.99 91 1012.6
20260505070703 11 25 3.2 11.3 0.46 0.99 0.99 90 1012.6
20260505070603 11 34 3.2 11.3 0.46 0.97 0.97 91 1012.6
20260505070504 11 55 1.6 8.0 0.46 0.97 0.97 90 1012.6
20260505070404 11 58 1.6 8.0 0.43 0.94 0.94 90 1012.6
20260505070304 11 61 1.6 8.0 0.43 0.94 0.94 90 1012.5
20260505070104 11 44 1.6 8.0 0.43 0.91 0.91 90 1012.6
20260505070004 11 37 3.2 8.0 0.43 0.89 0.89 90 1012.6
20260505065903 11 38 3.2 8.0 0.43 0.89 0.89 90 1012.5
20260505065803 11 34 3.2 8.0 0.43 0.89 0.89 90 1012.6
20260505065704 11 34 3.2 8.0 0.43 0.89 0.89 90 1012.6
20260505065603 11 34 3.2 8.0 0.43 0.89 0.89 90 1012.4
20260505065504 11 31 1.6 8.0 0.43 0.89 0.89 90 1012.5
20260505065403 11 33 1.6 8.0 0.43 0.86 0.86 90 1012.5
20260505065304 11 32 1.6 8.0 0.43 0.86 0.86 90 1012.4
20260505065212 11 40 1.6 8.0 0.43 0.86 0.86 90 1012.4
20260505065104 11 57 1.6 8.0 0.43 0.84 0.84 90 1012.5
20260505065004 11 64 1.6 8.0 0.43 0.84 0.84 90 1012.5
20260505064803 11 67 1.6 4.8 0.43 0.81 0.81 90 1012.4
20260505064604 11 271 1.6 3.2 0.41 0.79 0.79 90 1012.4
20260505064504 11 304 1.6 3.2 0.43 0.79 0.79 90 1012.5
20260505064404 11 314 1.6 4.8 0.41 0.79 0.79 90 1012.3
20260505064303 11 318 1.6 6.4 0.43 0.79 0.79 90 1012.3
20260505064213 11 328 1.6 8.0 0.43 0.79 0.79 90 1012.3
20260505064004 11 337 4.8 14.5 0.41 0.76 0.76 90 1012.3
20260505063904 11 337 4.8 14.5 0.43 0.76 0.76 90 1012.3
20260505063803 11 338 4.8 14.5 0.41 0.74 0.74 90 1012.4
20260505063703 11 343 6.4 14.5 0.41 0.74 0.74 90 1012.4
20260505063603 11 344 6.4 14.5 0.38 0.71 0.71 90 1012.4
20260505063504 11 344 6.4 14.5 0.41 0.71 0.71 90 1012.4
20260505063403 11 345 6.4 14.5 0.41 0.71 0.71 90 1012.4
20260505063212 11 345 6.4 14.5 0.38 0.71 0.71 89 1012.4
20260505063104 11 345 4.8 14.5 0.41 0.71 0.71 89 1012.4
20260505063004 11 346 4.8 11.3 0.41 0.71 0.71 89 1012.4
20260505062803 11 351 3.2 9.7 0.41 0.69 0.69 89 1012.5
20260505062604 11 354 3.2 9.7 0.41 0.69 0.69 90 1012.4
20260505062304 11 357 3.2 6.4 0.38 0.64 0.64 89 1012.4
20260505062213 11 355 3.2 6.4 0.38 0.64 0.64 89 1012.5
20260505062104 11 356 3.2 6.4 0.38 0.64 0.64 89 1012.5
20260505061903 11 354 3.2 6.4 0.33 0.61 0.61 89 1012.4
20260505061803 11 354 3.2 6.4 0.33 0.61 0.61 89 1012.5
20260505061704 11 354 3.2 6.4 0.33 0.58 0.58 89 1012.4
20260505061604 11 354 3.2 6.4 0.33 0.58 0.58 89 1012.4
20260505061503 11 352 3.2 6.4 0.33 0.56 0.56 89 1012.4
20260505061404 11 353 3.2 6.4 0.33 0.56 0.56 89 1012.5
20260505061304 11 354 3.2 6.4 0.33 0.56 0.56 89 1012.5
20260505061205 11 352 3.2 6.4 0.30 0.53 0.53 89 1012.4
20260505061104 11 351 3.2 6.4 0.33 0.53 0.53 89 1012.4
20260505061004 11 351 3.2 6.4 0.33 0.53 0.53 89 1012.4
20260505060914 11 349 3.2 8.0 0.33 0.53 0.53 89 1012.4
20260505060803 11 350 3.2 8.0 0.30 0.51 0.51 89 1012.4
20260505060704 11 350 3.2 8.0 0.33 0.51 0.51 89 1012.4
20260505060603 11 350 3.2 8.0 0.30 0.51 0.51 89 1012.4
20260505060503 11 348 3.2 8.0 0.30 0.51 0.51 89 1012.4
20260505060404 11 346 3.2 8.0 0.30 0.51 0.51 89 1012.4
20260505060303 11 346 3.2 8.0 0.28 0.48 0.48 89 1012.3
20260505060204 11 345 3.2 8.0 0.30 0.48 0.48 89 1012.2
20260505060004 11 341 3.2 8.0 0.28 0.46 0.46 88 1012.3
20260505055912 11 339 3.2 8.0 0.28 0.46 0.46 88 1012.3
20260505055803 11 329 1.6 6.4 0.28 0.46 0.46 88 1012.2
20260505055704 11 304 1.6 6.4 0.25 0.43 0.43 88 1012.3
20260505055504 11 209 1.6 4.8 0.28 0.43 0.43 88 1012.2
20260505055304 11 167 1.6 4.8 0.28 0.43 0.43 88 1012.1
20260505055104 11 134 1.6 4.8 0.28 0.43 0.43 88 1012.1
20260505055003 11 83 1.6 4.8 0.25 0.41 0.41 88 1012.1
20260505054804 11 127 1.6 8.0 0.25 0.41 0.41 88 1012.2
20260505054603 11 134 3.2 8.0 0.25 0.38 0.38 88 1012.0
20260505054504 11 142 3.2 8.0 0.25 0.38 0.38 88 1012.1
20260505054403 11 145 3.2 8.0 0.25 0.38 0.38 88 1012.2
20260505054304 11 146 3.2 8.0 0.23 0.36 0.38 88 1012.1
20260505054203 11 146 1.6 8.0 0.23 0.36 0.36 88 1012.1
20260505054104 11 148 1.6 8.0 0.25 0.36 0.36 88 1012.1
20260505054004 11 151 1.6 8.0 0.25 0.36 0.36 88 1012.1
20260505053803 11 145 1.6 6.4 0.23 0.33 0.33 88 1012.1
20260505053603 11 346 1.6 4.8 0.23 0.33 0.33 87 1012.1
20260505053504 11 350 1.6 9.7 0.23 0.33 0.33 88 1012.1
20260505053403 11 353 3.2 11.3 0.23 0.33 0.33 88 1011.9
20260505053304 11 353 3.2 12.9 0.23 0.33 0.33 87 1012.0
20260505053204 11 355 3.2 12.9 0.23 0.30 0.30 87 1012.0
20260505053104 11 356 4.8 12.9 0.23 0.30 0.30 87 1012.0
20260505052910 11 358 4.8 12.9 0.20 0.28 0.28 87 1012.0
20260505052804 11 1 4.8 12.9 0.20 0.28 0.28 87 1012.0
20260505052704 11 3 4.8 12.9 0.20 0.28 0.28 87 1012.1
20260505052603 11 4 4.8 12.9 0.20 0.28 0.28 87 1012.0
20260505052403 11 6 3.2 12.9 0.20 0.28 0.28 87 1012.1
20260505052204 11 6 3.2 9.7 0.18 0.25 0.25 87 1012.1
20260505052103 11 4 3.2 9.7 0.18 0.25 0.25 87 1012.0
20260505052004 11 4 3.2 9.7 0.18 0.25 0.25 87 1012.1
20260505051912 11 2 3.2 9.7 0.18 0.25 0.25 86 1012.0
20260505051805 11 358 3.2 9.7 0.20 0.25 0.25 86 1012.0
20260505051704 11 356 4.8 9.7 0.18 0.23 0.23 86 1012.1
20260505051604 11 355 4.8 11.3 0.18 0.23 0.23 86 1012.1
20260505051503 11 356 4.8 11.3 0.18 0.23 0.23 86 1012.1
20260505051404 11 355 6.4 11.3 0.18 0.23 0.23 86 1012.0
20260505051304 11 355 6.4 11.3 0.18 0.23 0.23 86 1012.1
20260505051004 11 354 6.4 11.3 0.15 0.23 0.23 86 1012.1
20260505050912 11 354 6.4 11.3 0.15 0.23 0.23 86 1012.0
20260505050803 11 355 4.8 11.3 0.15 0.20 0.20 85 1012.1
20260505050604 11 355 4.8 9.7 0.15 0.20 0.20 85 1012.0
20260505050504 11 354 3.2 9.7 0.15 0.20 0.20 85 1012.0
20260505050404 12 353 3.2 8.0 0.15 0.20 0.20 85 1012.0
20260505050103 12 357 1.6 6.4 0.13 0.18 0.18 85 1011.9
20260505041703 12 351 4.8 8.0 0.05 0.05 0.05 81 1011.7
20260505041404 12 353 4.8 8.0 0.05 0.05 0.05 80 1011.6
20260505041304 12 354 4.8 8.0 0.05 0.05 0.05 81 1011.7
20260505041211 12 354 4.8 8.0 0.05 0.05 0.05 80 1011.6
20260505041004 12 354 4.8 8.0 0.05 0.05 0.05 80 1011.5
20260505040903 12 353 4.8 8.0 0.05 0.05 0.05 80 1011.5
20260505040704 12 358 6.4 9.7 0.05 0.05 0.05 80 1011.5
20260505040504 12 357 6.4 9.7 0.05 0.05 0.05 80 1011.4
20260505040403 12 357 6.4 9.7 0.05 0.05 0.05 80 1011.5
20260505040304 12 358 6.4 9.7 0.05 0.05 0.05 80 1011.6
20260505040212 12 357 6.4 11.3 0.05 0.05 0.05 80 1011.5
20260505040104 12 359 6.4 11.3 0.05 0.05 0.05 79 1011.5
20260505040005 12 358 6.4 11.3 0.05 0.05 0.05 79 1011.5
20260505035903 12 357 4.8 11.3 0.05 0.05 0.05 79 1011.5
20260505035604 12 354 4.8 11.3 0.05 0.05 0.05 78 1011.4
20260505035504 12 352 4.8 11.3 0.05 0.05 0.05 78 1011.4
20260505035404 12 349 4.8 11.3 0.05 0.05 0.05 78 1011.3
20260505035304 12 348 4.8 12.9 0.05 0.05 0.05 78 1011.4
20260505035104 13 348 4.8 12.9 0.05 0.05 0.05 78 1011.4
20260505035004 12 349 4.8 12.9 0.05 0.05 0.05 78 1011.3
20260505034903 12 350 4.8 12.9 0.05 0.05 0.05 77 1011.3
20260505034803 12 352 4.8 12.9 0.05 0.05 0.05 77 1011.3
20260505034604 12 354 4.8 12.9 0.05 0.05 0.05 77 1011.2
20260505034503 13 354 4.8 12.9 0.05 0.05 0.05 76 1011.3
20260505034404 13 356 4.8 12.9 0.05 0.05 0.05 75 1011.2
20260505034303 13 357 4.8 8.0 0.05 0.05 0.05 75 1011.2
20260505034211 13 356 4.8 8.0 0.05 0.05 0.05 75 1011.2
20260505034104 13 355 4.8 12.9 0.05 0.05 0.05 75 1011.2
20260505033904 13 353 4.8 12.9 0.03 0.03 0.03 75 1011.2
20260505033803 13 353 4.8 12.9 0.03 0.03 0.03 76 1011.2
20260505033603 13 352 6.4 12.9 0.03 0.03 0.03 76 1011.2
20260505033512 13 353 6.4 12.9 0.03 0.03 0.03 75 1011.2
20260505033404 13 353 6.4 12.9 0.03 0.03 0.03 75 1011.1
20260505033304 13 353 6.4 12.9 0.03 0.03 0.03 74 1011.1
20260505033204 13 356 6.4 12.9 0.03 0.03 0.03 74 1011.2
20260505033104 13 358 6.4 9.7 0.03 0.03 0.03 74 1011.2
20260505033010 13 2 4.8 9.7 0.03 0.03 0.03 74 1011.1
20260505032904 13 3 4.8 9.7 0.03 0.03 0.03 74 1011.1
20260505032803 13 3 3.2 9.7 0.03 0.03 0.03 74 1011.1
20260505032703 13 3 3.2 9.7 0.03 0.03 0.03 74 1011.1
20260505032604 13 358 3.2 9.7 0.03 0.03 0.03 74 1011.2
20260505032504 13 351 3.2 9.7 0.03 0.03 0.03 74 1011.1
20260505032304 13 168 3.2 8.0 0.03 0.03 0.03 75 1011.1
20260505032203 13 182 3.2 8.0 0.03 0.03 0.03 76 1011.2
20260505032104 13 190 3.2 8.0 0.03 0.03 0.03 77 1011.2
20260505032013 13 196 3.2 8.0 0.03 0.03 0.03 77 1011.1
20260505031704 13 204 3.2 8.0 0.00 0.00 0.00 77 1011.1
20260505031604 13 209 3.2 8.0 0.00 0.00 0.00 76 1011.2
20260505031503 13 219 3.2 8.0 0.00 0.00 0.00 75 1011.1
20260505031404 13 228 3.2 8.0 0.00 0.00 0.00 76 1011.1
20260505031310 13 237 3.2 6.4 0.00 0.00 0.00 76 1011.2
20260505031203 13 237 3.2 8.0 0.00 0.00 0.00 76 1011.2
20260505031004 13 232 4.8 8.0 0.00 0.00 0.00 77 1011.2
20260505030904 13 230 4.8 8.0 0.00 0.00 0.00 77 1011.3
20260505030810 13 229 4.8 8.0 0.00 0.00 0.00 77 1011.2
20260505030704 13 231 4.8 8.0 0.00 0.00 0.00 77 1011.2
20260505030604 13 230 4.8 8.0 0.00 0.00 0.00 76 1011.3
20260505030504 13 232 4.8 8.0 0.00 0.00 0.00 76 1011.3
20260505030203 14 250 4.8 8.0 0.00 0.00 0.00 75 1011.2
20260505030103 14 260 3.2 8.0 0.00 0.00 0.00 75 1011.2
20260505030004 14 273 3.2 8.0 0.00 0.00 0.00 75 1011.2
20260505025903 14 289 3.2 6.4 0.00 0.00 0.00 75 1011.1
20260505025804 14 294 3.2 6.4 0.00 0.00 0.00 75 1011.1
20260505025703 14 295 3.2 6.4 0.00 0.00 0.00 75 1011.1
20260505025403 14 309 3.2 6.4 0.00 0.00 0.00 75 1011.1
20260505025305 14 312 3.2 6.4 0.00 0.00 0.00 74 1011.1
20260505025204 14 314 3.2 6.4 0.00 0.00 0.00 74 1011.1
20260505025104 14 321 3.2 6.4 0.00 0.00 0.00 74 1011.1
20260505025004 14 326 3.2 4.8 0.00 0.00 0.00 73 1011.2
20260505024909 14 326 3.2 4.8 0.00 0.00 0.00 73 1011.3
20260505024803 14 331 1.6 4.8 0.00 0.00 0.00 72 1011.2
20260505024503 15 338 1.6 6.4 0.00 0.00 0.00 70 1011.1
20260505024403 15 335 1.6 6.4 0.00 0.00 0.00 70 1011.2
20260505024303 15 336 1.6 6.4 0.00 0.00 0.00 70 1011.2
20260505024203 15 336 1.6 6.4 0.00 0.00 0.00 70 1011.2
20260505024103 15 338 1.6 6.4 0.00 0.00 0.00 70 1011.2
20260505024003 14 347 3.2 8.0 0.00 0.00 0.00 70 1011.2
20260505023913 14 347 3.2 8.0 0.00 0.00 0.00 70 1011.2
20260505023703 14 345 1.6 8.0 0.00 0.00 0.00 69 1011.2
20260505023603 14 353 1.6 8.0 0.00 0.00 0.00 70 1011.1
20260505023504 14 7 1.6 8.0 0.00 0.00 0.00 70 1011.3
20260505023404 14 45 1.6 8.0 0.00 0.00 0.00 70 1011.2
20260505023304 14 86 1.6 8.0 0.00 0.00 0.00 70 1011.2
20260505023211 14 115 1.6 8.0 0.00 0.00 0.00 69 1011.3
20260505023103 14 128 1.6 8.0 0.00 0.00 0.00 70 1011.1
20260505023004 15 157 0.0 3.2 0.00 0.00 0.00 70 1011.3
20260505022903 15 159 0.0 3.2 0.00 0.00 0.00 70 1011.3
20260505022803 15 160 0.0 3.2 0.00 0.00 0.00 70 1011.2
20260505022704 15 160 1.6 4.8 0.00 0.00 0.00 69 1011.2
20260505022603 15 159 1.6 4.8 0.00 0.00 0.00 68 1011.2
20260505022404 15 153 1.6 4.8 0.00 0.00 0.00 69 1011.2
20260505022304 15 152 1.6 4.8 0.00 0.00 0.00 68 1011.2
20260505022204 15 150 1.6 4.8 0.00 0.00 0.00 68 1011.2
20260505022104 15 150 1.6 4.8 0.00 0.00 0.00 67 1011.2
20260505021903 15 149 1.6 4.8 0.00 0.00 0.00 67 1011.2
20260505021808 15 147 0.0 4.8 0.00 0.00 0.00 67 1011.2
20260505021704 15 136 0.0 4.8 0.00 0.00 0.00 67 1011.3
20260505021604 15 70 0.0 1.6 0.00 0.00 0.00 67 1011.3
20260505021504 15 9 0.0 1.6 0.00 0.00 0.00 67 1011.3
20260505021411 15 3 0.0 1.6 0.00 0.00 0.00 67 1011.2
20260505021304 15 2 0.0 1.6 0.00 0.00 0.00 67 1011.2
20260505021203 15 2 0.0 1.6 0.00 0.00 0.00 67 1011.2
20260505021108 15 3 0.0 1.6 0.00 0.00 0.00 66 1011.2
20260505020803 15 352 1.6 4.8 0.00 0.00 0.00 65 1011.2
20260505020704 15 349 1.6 4.8 0.00 0.00 0.00 65 1011.2
20260505020603 15 354 1.6 4.8 0.00 0.00 0.00 65 1011.3
20260505020504 15 346 1.6 6.4 0.00 0.00 0.00 65 1011.3
20260505020203 15 325 3.2 6.4 0.00 0.00 0.00 65 1011.4
20260505020103 15 320 3.2 6.4 0.00 0.00 0.00 65 1011.3
20260505020004 15 308 3.2 6.4 0.00 0.00 0.00 65 1011.4
20260505015904 15 300 3.2 6.4 0.00 0.00 0.00 64 1011.4
20260505015804 15 296 1.6 6.4 0.00 0.00 0.00 64 1011.5
20260505015707 15 286 1.6 6.4 0.00 0.00 0.00 65 1011.5
20260505015503 15 264 1.6 4.8 0.00 0.00 0.00 66 1011.6
20260505015304 15 270 1.6 3.2 0.00 0.00 0.00 67 1011.6
20260505015204 15 271 1.6 3.2 0.00 0.00 0.00 68 1011.6
20260505015103 15 277 1.6 3.2 0.00 0.00 0.00 68 1011.5
20260505015007 15 280 1.6 3.2 0.00 0.00 0.00 68 1011.5
20260505014903 15 286 1.6 3.2 0.00 0.00 0.00 68 1011.5
20260505014804 15 298 1.6 3.2 0.00 0.00 0.00 68 1011.6
20260505014704 15 308 1.6 3.2 0.00 0.00 0.00 68 1011.6
20260505014603 15 316 1.6 3.2 0.00 0.00 0.00 67 1011.7
20260505014504 15 327 1.6 3.2 0.00 0.00 0.00 68 1011.6
20260505014403 15 337 1.6 3.2 0.00 0.00 0.00 68 1011.6
20260505014204 15 349 1.6 4.8 0.00 0.00 0.00 67 1011.6
20260505014103 15 350 1.6 4.8 0.00 0.00 0.00 67 1011.6
20260505014003 15 349 1.6 4.8 0.00 0.00 0.00 67 1011.6
20260505013803 15 344 1.6 4.8 0.00 0.00 0.00 66 1011.7
20260505013704 15 343 1.6 4.8 0.00 0.00 0.00 66 1011.7
20260505013606 15 340 1.6 4.8 0.00 0.00 0.00 66 1011.8
20260505013504 15 338 1.6 4.8 0.00 0.00 0.00 65 1011.6
20260505013404 15 335 1.6 4.8 0.00 0.00 0.00 66 1011.6
20260505013304 15 331 1.6 4.8 0.00 0.00 0.00 66 1011.6
20260505013203 15 325 1.6 4.8 0.00 0.00 0.00 66 1011.6
20260505013105 15 321 1.6 4.8 0.00 0.00 0.00 65 1011.6
20260505013003 15 317 1.6 4.8 0.00 0.00 0.00 65 1011.7
20260505012907 15 310 0.0 3.2 0.00 0.00 0.00 64 1011.7
20260505012703 15 309 0.0 1.6 0.00 0.00 0.00 64 1011.7
20260505012603 15 309 0.0 1.6 0.00 0.00 0.00 64 1011.7
20260505012504 15 309 0.0 1.6 0.00 0.00 0.00 64 1011.7
20260505012403 15 309 0.0 1.6 0.00 0.00 0.00 65 1011.8
20260505012304 15 309 0.0 1.6 0.00 0.00 0.00 65 1011.7
20260505012104 15 309 0.0 1.6 0.00 0.00 0.00 65 1011.8
20260505012004 15 309 0.0 1.6 0.00 0.00 0.00 65 1011.8
20260505011903 15 309 0.0 3.2 0.00 0.00 0.00 65 1011.9
20260505011603 15 309 1.6 3.2 0.00 0.00 0.00 65 1011.9
20260505011507 15 309 1.6 3.2 0.00 0.00 0.00 65 1011.8
20260505011404 15 309 1.6 3.2 0.00 0.00 0.00 66 1011.8
20260505011304 15 309 1.6 3.2 0.00 0.00 0.00 66 1011.8
20260505011203 15 309 1.6 3.2 0.00 0.00 0.00 66 1011.9
20260505011103 15 309 1.6 3.2 0.00 0.00 0.00 66 1012.0
20260505011004 15 309 1.6 3.2 0.00 0.00 0.00 66 1011.9
20260505010604 15 304 1.6 4.8 0.00 0.00 0.00 66 1012.0
20260505010504 15 302 1.6 4.8 0.00 0.00 0.00 67 1012.0
20260505010403 15 300 1.6 4.8 0.00 0.00 0.00 67 1012.1
20260505010004 15 284 1.6 4.8 0.00 0.00 0.00 67 1012.1
20260505005904 15 277 1.6 4.8 0.00 0.00 0.00 67 1012.2
20260505005804 15 270 1.6 3.2 0.00 0.00 0.00 67 1012.2
20260505005604 15 255 0.0 3.2 0.00 0.00 0.00 67 1012.2
20260505005504 15 248 1.6 3.2 0.00 0.00 0.00 67 1012.2
20260505005406 15 242 1.6 3.2 0.00 0.00 0.00 67 1012.2
20260505005304 15 234 1.6 4.8 0.00 0.00 0.00 67 1012.3
20260505005204 15 236 1.6 4.8 0.00 0.00 0.00 67 1012.4
20260505005104 15 236 1.6 4.8 0.00 0.00 0.00 67 1012.3
20260505005004 15 236 1.6 4.8 0.00 0.00 0.00 67 1012.4
20260505004803 15 235 1.6 4.8 0.00 0.00 0.00 67 1012.4
20260505004706 15 235 1.6 4.8 0.00 0.00 0.00 67 1012.5
20260505004604 15 235 1.6 4.8 0.00 0.00 0.00 67 1012.4
20260505004503 15 234 1.6 4.8 0.00 0.00 0.00 67 1012.5
20260505004403 15 235 1.6 4.8 0.00 0.00 0.00 67 1012.5
20260505004204 15 235 1.6 4.8 0.00 0.00 0.00 67 1012.5
20260505004103 15 235 1.6 4.8 0.00 0.00 0.00 67 1012.5
20260505004006 15 235 1.6 4.8 0.00 0.00 0.00 67 1012.6
20260505003903 15 235 1.6 3.2 0.00 0.00 0.00 67 1012.5
20260505003704 15 235 1.6 3.2 0.00 0.00 0.00 67 1012.6
20260505003603 15 235 1.6 3.2 0.00 0.00 0.00 67 1012.6
20260505003504 15 235 1.6 4.8 0.00 0.00 0.00 67 1012.6
20260505003403 15 235 1.6 4.8 0.00 0.00 0.00 67 1012.7
20260505003204 15 235 1.6 4.8 0.00 0.00 0.00 67 1012.6
20260505003104 15 237 1.6 4.8 0.00 0.00 0.00 67 1012.6
20260505003005 15 238 1.6 4.8 0.00 0.00 0.00 66 1012.7
20260505002905 15 239 1.6 4.8 0.00 0.00 0.00 66 1012.7
20260505002804 15 242 1.6 4.8 0.00 0.00 0.00 66 1012.7
20260505002703 15 244 1.6 4.8 0.00 0.00 0.00 66 1012.7
20260505002504 15 254 1.6 4.8 0.00 0.00 0.00 65 1012.8
20260505002404 15 263 1.6 4.8 0.00 0.00 0.00 64 1012.7
20260505002304 15 275 1.6 3.2 0.00 0.00 0.00 65 1012.8
20260505002204 15 290 1.6 3.2 0.00 0.00 0.00 65 1012.8
20260505002004 15 292 0.0 3.2 0.00 0.00 0.00 65 1012.9
20260505001803 15 292 0.0 3.2 0.00 0.00 0.00 65 1012.8
20260505001703 15 292 0.0 3.2 0.00 0.00 0.00 65 1012.9
20260505001504 15 292 0.0 3.2 0.00 0.00 0.00 65 1012.9
20260505001404 15 291 0.0 3.2 0.00 0.00 0.00 65 1012.8
20260505001303 15 284 0.0 3.2 0.00 0.00 0.00 65 1012.8
20260505001209 15 271 0.0 3.2 0.00 0.00 0.00 65 1012.8
20260505001104 15 266 0.0 3.2 0.00 0.00 0.00 65 1012.8
20260505001004 15 260 0.0 3.2 0.00 0.00 0.00 65 1012.8
20260505000904 15 244 0.0 3.2 0.00 0.00 0.00 65 1012.6
20260505000803 15 233 0.0 6.4 0.00 0.00 0.00 65 1012.8
20260505000703 15 219 1.6 6.4 0.00 0.00 0.00 65 1012.8
20260505000604 15 211 1.6 8.0 0.00 0.00 0.00 65 1012.8
20260505000304 15 206 3.2 8.0 0.00 0.00 0.00 66 1012.9
20260505000004 15 210 4.8 8.0 0.00 0.00 0.00 66 1013.0
20260504235903 15 210 4.8 8.0 0.00 0.00 0.00 66 1013.0
20260504235810 15 212 4.8 8.0 0.00 0.00 0.00 66 1013.0
20260504235703 15 213 4.8 8.0 0.00 0.00 0.00 66 1013.0
20260504235604 15 216 4.8 8.0 0.00 0.00 0.00 66 1013.0
20260504235503 15 220 4.8 8.0 0.00 0.00 0.00 66 1013.0
20260504235403 15 224 3.2 8.0 0.00 0.00 0.00 66 1013.0
20260504235304 15 228 3.2 8.0 0.00 0.00 0.00 66 1013.1
20260504235203 15 232 3.2 8.0 0.00 0.00 0.00 66 1013.0
20260504235107 15 240 3.2 8.0 0.00 0.00 0.00 65 1013.1
20260504235003 15 248 1.6 8.0 0.00 0.00 0.00 65 1013.2
20260504234903 15 259 1.6 4.8 0.00 0.00 0.00 65 1013.2
20260504234803 15 270 1.6 4.8 0.00 0.00 0.00 64 1013.0
20260504234704 15 285 1.6 4.8 0.00 0.00 0.00 64 1013.1
20260504234604 16 297 1.6 3.2 0.00 0.00 0.00 63 1013.0
20260504234503 16 297 1.6 3.2 0.00 0.00 0.00 63 1013.1
20260504234407 16 298 0.0 3.2 0.00 0.00 0.00 63 1013.1
20260504234304 16 300 0.0 3.2 0.00 0.00 0.00 63 1013.1
20260504234204 16 301 0.0 3.2 0.00 0.00 0.00 64 1013.1
20260504234104 16 309 0.0 3.2 0.00 0.00 0.00 64 1013.2
20260504234004 16 313 0.0 3.2 0.00 0.00 0.00 63 1013.1
20260504233803 16 302 0.0 3.2 0.00 0.00 0.00 63 1013.1
20260504233603 15 257 1.6 4.8 0.00 0.00 0.00 63 1013.1
20260504233505 15 250 1.6 4.8 0.00 0.00 0.00 63 1013.2
20260504233416 15 247 1.6 4.8 0.00 0.00 0.00 63 1013.2
20260504233303 15 243 1.6 4.8 0.00 0.00 0.00 63 1013.2
20260504233204 15 241 1.6 4.8 0.00 0.00 0.00 64 1013.2
20260504233103 15 233 1.6 4.8 0.00 0.00 0.00 63 1013.3
20260504233004 15 228 1.6 6.4 0.00 0.00 0.00 64 1013.3
20260504232903 15 227 1.6 6.4 0.00 0.00 0.00 64 1013.3
20260504232804 15 224 3.2 6.4 0.00 0.00 0.00 64 1013.3
20260504232603 15 221 3.2 8.0 0.00 0.00 0.00 65 1013.3
20260504232404 15 221 4.8 8.0 0.00 0.00 0.00 66 1013.5
20260504232304 15 221 4.8 8.0 0.00 0.00 0.00 66 1013.5
20260504232205 15 221 4.8 8.0 0.00 0.00 0.00 66 1013.5
20260504232104 15 221 4.8 8.0 0.00 0.00 0.00 66 1013.5
20260504232008 15 221 4.8 8.0 0.00 0.00 0.00 66 1013.5
20260504231904 15 222 6.4 8.0 0.00 0.00 0.00 66 1013.5
20260504231803 15 222 4.8 8.0 0.00 0.00 0.00 66 1013.5
20260504231703 15 222 4.8 8.0 0.00 0.00 0.00 65 1013.5
20260504231604 15 222 4.8 8.0 0.00 0.00 0.00 65 1013.6
20260504231503 15 222 4.8 8.0 0.00 0.00 0.00 65 1013.6
20260504231308 15 221 3.2 8.0 0.00 0.00 0.00 65 1013.6
20260504231203 15 220 3.2 8.0 0.00 0.00 0.00 65 1013.6
20260504231103 15 218 3.2 6.4 0.00 0.00 0.00 65 1013.7
20260504231004 15 217 3.2 6.4 0.00 0.00 0.00 65 1013.6
20260504230903 15 215 3.2 6.4 0.00 0.00 0.00 65 1013.6
20260504230805 15 214 3.2 6.4 0.00 0.00 0.00 65 1013.6
20260504230703 15 214 3.2 6.4 0.00 0.00 0.00 64 1013.7
20260504230608 15 214 3.2 6.4 0.00 0.00 0.00 64 1013.7
20260504230503 15 214 3.2 6.4 0.00 0.00 0.00 65 1013.7
20260504230403 15 215 4.8 6.4 0.00 0.00 0.00 64 1013.7
20260504230203 15 217 4.8 6.4 0.00 0.00 0.00 65 1013.7
20260504230104 15 218 4.8 6.4 0.00 0.00 0.00 65 1013.7
20260504225909 15 221 3.2 6.4 0.00 0.00 0.00 65 1013.7
20260504225804 15 222 3.2 6.4 0.00 0.00 0.00 66 1013.8
20260504225703 15 222 3.2 4.8 0.00 0.00 0.00 66 1013.6
20260504225604 15 223 3.2 4.8 0.00 0.00 0.00 65 1013.6
20260504225403 15 227 3.2 4.8 0.00 0.00 0.00 65 1013.6
20260504225304 15 230 3.2 4.8 0.00 0.00 0.00 65 1013.7
20260504225103 15 236 1.6 4.8 0.00 0.00 0.00 65 1013.6
20260504225004 15 240 1.6 4.8 0.00 0.00 0.00 65 1013.6
20260504224904 15 243 1.6 4.8 0.00 0.00 0.00 64 1013.6
20260504224603 16 272 1.6 3.2 0.00 0.00 0.00 64 1013.6
20260504224506 16 279 1.6 3.2 0.00 0.00 0.00 64 1013.7
20260504224404 16 292 0.0 3.2 0.00 0.00 0.00 64 1013.6
20260504224304 16 301 0.0 3.2 0.00 0.00 0.00 64 1013.7
20260504224203 16 307 0.0 1.6 0.00 0.00 0.00 64 1013.7
20260504224103 16 307 0.0 1.6 0.00 0.00 0.00 64 1013.6
20260504224003 16 307 0.0 1.6 0.00 0.00 0.00 64 1013.6
20260504223904 16 307 0.0 1.6 0.00 0.00 0.00 64 1013.6
20260504223806 16 307 0.0 1.6 0.00 0.00 0.00 64 1013.7
20260504223704 16 307 0.0 1.6 0.00 0.00 0.00 64 1013.7
20260504223604 16 307 0.0 1.6 0.00 0.00 0.00 63 1013.8
20260504223503 16 307 0.0 1.6 0.00 0.00 0.00 63 1013.8
20260504223404 16 307 0.0 1.6 0.00 0.00 0.00 63 1013.9
20260504223304 16 307 0.0 1.6 0.00 0.00 0.00 63 1013.8
20260504223203 16 307 0.0 1.6 0.00 0.00 0.00 63 1013.9
20260504223106 16 307 0.0 3.2 0.00 0.00 0.00 63 1013.7
20260504223004 16 307 0.0 3.2 0.00 0.00 0.00 63 1013.8
20260504222904 16 307 1.6 3.2 0.00 0.00 0.00 63 1013.9
20260504222804 16 307 1.6 3.2 0.00 0.00 0.00 63 1013.9
20260504222604 16 307 1.6 3.2 0.00 0.00 0.00 64 1013.9
20260504222504 16 307 1.6 3.2 0.00 0.00 0.00 64 1013.8
20260504222406 16 307 1.6 3.2 0.00 0.00 0.00 63 1013.9
20260504222305 16 307 1.6 3.2 0.00 0.00 0.00 64 1014.0
20260504222204 16 307 0.0 3.2 0.00 0.00 0.00 63 1014.0
20260504222004 16 307 0.0 3.2 0.00 0.00 0.00 63 1014.0
20260504221903 16 307 0.0 3.2 0.00 0.00 0.00 63 1013.9
20260504221804 16 307 0.0 3.2 0.00 0.00 0.00 63 1013.9
20260504221403 16 307 0.0 3.2 0.00 0.00 0.00 63 1014.0
20260504221303 16 307 0.0 3.2 0.00 0.00 0.00 63 1014.0
20260504221204 16 307 0.0 3.2 0.00 0.00 0.00 63 1014.0
20260504221103 16 306 0.0 3.2 0.00 0.00 0.00 63 1014.0
20260504221007 16 304 0.0 3.2 0.00 0.00 0.00 63 1014.0
20260504220904 16 300 1.6 4.8 0.00 0.00 0.00 63 1014.0
20260504220803 16 296 1.6 4.8 0.00 0.00 0.00 63 1014.0
20260504220703 16 295 1.6 4.8 0.00 0.00 0.00 63 1014.0
20260504220604 16 299 1.6 4.8 0.00 0.00 0.00 63 1014.1
20260504220504 16 294 1.6 4.8 0.00 0.00 0.00 63 1014.0
20260504220403 16 293 1.6 4.8 0.00 0.00 0.00 63 1014.0
20260504220204 16 281 1.6 4.8 0.00 0.00 0.00 63 1014.1
20260504220012 16 274 1.6 4.8 0.00 0.00 0.00 63 1014.2
20260504215903 16 270 1.6 4.8 0.00 0.00 0.00 63 1014.0
20260504215803 16 267 1.6 4.8 0.00 0.00 0.00 63 1014.1
20260504215704 16 259 1.6 4.8 0.00 0.00 0.00 63 1014.1
20260504215604 16 244 1.6 4.8 0.00 0.00 0.00 62 1014.2
20260504215503 16 235 0.0 4.8 0.00 0.00 0.00 62 1014.2
20260504215403 16 231 0.0 4.8 0.00 0.00 0.00 62 1014.2
20260504215309 16 228 0.0 4.8 0.00 0.00 0.00 62 1014.1
20260504215203 16 231 0.0 4.8 0.00 0.00 0.00 62 1014.2
20260504215004 16 236 1.6 6.4 0.00 0.00 0.00 62 1014.1
20260504214903 16 233 1.6 6.4 0.00 0.00 0.00 62 1014.2
20260504214803 16 232 1.6 6.4 0.00 0.00 0.00 63 1014.1
20260504214608 16 229 1.6 6.4 0.00 0.00 0.00 62 1014.2
20260504214504 16 226 3.2 6.4 0.00 0.00 0.00 62 1014.1
20260504214403 16 222 3.2 8.0 0.00 0.00 0.00 62 1014.1
20260504214304 16 218 3.2 8.0 0.00 0.00 0.00 62 1014.1
20260504214203 16 215 4.8 8.0 0.00 0.00 0.00 62 1014.2
20260504214104 16 212 4.8 9.7 0.00 0.00 0.00 61 1014.1
20260504214004 16 208 4.8 9.7 0.00 0.00 0.00 61 1014.2
20260504213908 16 206 4.8 11.3 0.00 0.00 0.00 61 1014.1
20260504213803 16 204 6.4 11.3 0.00 0.00 0.00 61 1014.2
20260504213604 16 203 6.4 11.3 0.00 0.00 0.00 61 1014.2
20260504213303 16 201 8.0 12.9 0.00 0.00 0.00 62 1014.2
20260504213103 16 201 8.0 12.9 0.00 0.00 0.00 63 1014.3
20260504212904 16 204 6.4 12.9 0.00 0.00 0.00 63 1014.3
20260504212804 16 207 6.4 12.9 0.00 0.00 0.00 63 1014.2
20260504212604 16 211 4.8 12.9 0.00 0.00 0.00 63 1014.3
20260504212509 16 215 4.8 11.3 0.00 0.00 0.00 63 1014.4
20260504212404 16 220 3.2 9.7 0.00 0.00 0.00 63 1014.4
20260504212304 16 228 3.2 8.0 0.00 0.00 0.00 63 1014.4
20260504212104 16 239 1.6 6.4 0.00 0.00 0.00 63 1014.4
20260504211904 16 240 1.6 6.4 0.00 0.00 0.00 62 1014.4
20260504211704 16 247 1.6 4.8 0.00 0.00 0.00 62 1014.3